Theta_e
339 341 340 336 339 340 340 338 334 332 334 334 333 329 330 331 330 330 331 330 332 331 331 331 329 329 328 328 328 328 327 326 327
337 337 336 338 337 339 338 337 335 335 333 331 328 330 329 330 329 330 330 331 334 331 330 330 329 328 328 328 328 328 327 326 326
341 339 334 340 337 338 338 335 334 333 332 328 327 329 329 329 329 330 330 330 331 330 330 329 328 328 328 327 328 327 327 326 326
341 341 333 339 338 337 335 332 331 331 329 328 326 328 328 328 329 330 330 330 330 330 329 329 328 327 327 327 327 326 327 325 326
341 341 337 338 337 336 333 330 330 329 327 327 327 327 327 329 330 330 329 330 330 329 329 328 328 328 327 326 327 327 327 326 326
341 341 338 336 336 336 333 329 329 328 328 328 327 326 327 330 329 329 330 330 330 329 329 329 329 328 327 327 327 327 327 327 326
339 340 338 336 336 336 335 329 328 328 328 329 328 326 328 327 329 329 329 330 330 330 330 329 328 328 327 327 326 326 326 325 322
338 340 339 337 336 334 335 330 327 327 328 329 329 327 326 327 327 329 329 330 330 330 329 328 327 326 325 325 324 323 321 319 319
339 339 339 337 336 332 333 330 326 328 329 329 327 325 325 325 327 328 329 330 330 330 329 328 327 325 325 323 320 318 317 317 317
338 339 338 338 336 331 326 324 326 328 329 329 327 327 327 325 325 326 327 328 329 330 329 328 327 326 325 323 318 317 317 317 316
338 338 338 338 336 333 326 320 326 328 329 328 328 328 327 325 324 324 325 326 326 328 329 329 328 328 327 326 321 320 319 318 318
339 338 337 337 337 335 328 319 326 327 327 327 328 328 327 325 322 322 323 324 324 324 329 330 330 329 330 329 328 326 321 320 320
339 338 337 336 336 336 330 318 326 327 326 326 327 327 327 326 322 320 321 322 322 322 322 328 329 329 330 329 328 328 327 327 325
338 338 337 336 335 336 330 317 324 326 325 324 325 327 327 326 325 321 320 320 320 321 321 322 325 326 327 329 330 329 329 329 328
338 338 337 335 334 335 331 317 320 326 325 322 323 326 326 326 325 325 325 322 324 325 325 325 325 326 326 327 327 329 329 329 328
334 337 336 335 333 334 333 319 318 323 323 321 322 324 326 326 326 326 326 326 326 326 326 327 327 327 326 326 326 327 327 327 327
335 336 335 334 333 331 331 320 317 321 321 322 323 321 323 325 325 326 326 327 327 327 327 327 327 327 327 327 326 326 326 326 326
332 336 335 334 334 330 330 323 317 321 320 323 324 320 323 322 326 326 326 327 327 327 326 325 325 326 326 325 325 324 324 325 326
331 331 334 334 333 331 328 325 316 320 321 323 325 326 326 322 322 325 326 326 326 326 325 325 325 325 325 325 324 324 324 325 325
326 327 327 333 332 330 328 322 319 319 321 322 324 325 325 324 321 321 323 324 324 325 325 325 325 326 324 323 323 323 323 323 323
Wind_Speed
23 20 21 22 17 20 21 20 18 18 17 18 19 21 20 19 17 17 16 14 14 16 14 15 15 15 15 16 15 15 16 17 17
24 20 21 23 22 20 21 21 19 16 14 16 18 18 18 18 18 18 15 14 13 14 13 14 14 14 14 14 13 14 15 15 15
22 21 23 21 23 21 19 19 19 17 14 15 17 17 17 19 17 16 14 12 12 12 12 12 12 12 12 12 12 13 13 13 13
23 23 24 22 23 22 20 18 17 18 16 14 16 15 16 17 16 15 13 11 11 10 11 11 10 11 11 10 10 11 11 12 12
23 24 26 25 24 24 22 18 18 16 16 15 15 15 16 16 16 15 13 11 11 10 10 9 9 9 9 9 9 9 8 10 10
24 24 27 27 26 25 23 21 17 16 16 15 14 16 16 16 15 15 12 11 10 9 8 8 8 8 7 6 7 7 7 7 8
26 25 26 27 27 25 25 23 19 16 18 17 15 16 15 15 15 14 11 10 9 9 8 7 7 6 6 5 5 5 5 5 5
27 26 26 26 26 24 28 24 21 18 20 19 16 16 16 15 14 14 12 10 9 9 8 7 6 6 5 4 3 3 3 3 3
30 30 30 28 26 25 27 26 24 20 21 19 17 17 16 15 14 14 13 11 9 8 7 6 5 5 4 3 2 2 1 1 2
33 32 33 33 30 28 27 27 27 23 23 20 18 17 15 15 15 14 14 12 10 8 7 7 6 5 4 3 1 1 1 1 2
34 34 36 37 34 28 29 29 30 26 24 22 20 17 15 14 16 15 14 13 12 10 8 7 6 5 4 4 3 3 3 4 5
35 35 34 37 37 31 30 30 30 27 24 21 21 19 16 15 16 15 14 14 13 11 9 8 8 7 6 6 6 6 6 6 7
33 32 34 36 40 35 33 33 34 30 26 23 22 21 17 15 15 15 15 14 13 12 10 10 9 8 7 7 8 9 9 11 10
36 37 38 39 39 39 35 34 37 34 28 24 21 23 19 16 15 16 15 14 13 12 11 10 10 9 9 8 9 10 12 13 14
37 41 39 42 38 41 37 36 36 36 30 23 21 23 20 18 17 16 14 14 14 12 11 10 10 9 10 11 11 12 13 12 13
34 31 40 43 40 43 43 37 37 34 30 21 17 19 21 20 19 18 17 16 14 14 13 12 12 12 11 12 12 13 14 14 12
31 42 40 41 38 39 42 39 31 26 33 15 15 2 7 19 23 22 21 19 17 17 16 16 16 15 14 14 14 14 13 13 12
27 36 46 44 41 39 43 41 34 26 35 25 11 2 4 5 14 25 23 21 20 18 16 15 14 14 13 11 11 11 12 9 6
29 19 28 39 39 38 44 43 40 33 29 29 26 12 10 4 1 11 23 22 20 18 16 13 11 11 11 12 11 9 7 6 7
36 33 26 35 38 37 42 39 37 37 34 34 30 18 14 8 3 3 6 19 21 18 16 14 13 12 11 10 10 9 7 7 6
Wind_Direction
153 155 152 153 159 152 142 142 140 135 130 127 129 130 128 126 120 121 113 107 111 104 99 98 98 88 89 86 80 81 76 75 72
156 162 162 158 163 154 152 146 145 139 136 132 136 138 136 132 128 120 115 110 112 109 98 102 98 90 91 89 86 82 79 77 75
167 169 166 165 165 161 159 155 154 154 149 140 141 143 140 134 127 122 122 118 117 111 106 104 102 99 95 89 93 88 83 79 79
174 177 173 170 168 165 168 165 158 156 154 148 147 152 148 141 135 132 130 127 123 117 115 113 110 105 102 100 95 88 87 80 75
182 181 178 175 170 169 170 173 163 160 156 153 153 156 153 146 146 142 139 133 128 129 126 123 119 116 114 107 102 97 88 83 76
188 185 180 178 175 174 176 176 175 165 162 158 159 163 160 156 156 150 146 144 141 141 138 134 128 126 122 116 107 103 93 90 80
194 190 186 182 179 180 184 184 178 177 173 168 165 170 170 166 167 156 157 156 159 155 154 146 137 134 131 124 113 110 100 90 87
197 189 188 188 189 188 185 185 185 182 183 177 176 177 178 179 175 170 172 172 173 170 165 157 156 149 145 135 124 112 109 98 75
198 193 191 192 197 192 187 188 187 183 186 185 181 179 183 187 185 183 185 187 188 182 175 175 172 170 164 160 148 135 112 75 48
197 195 195 194 198 201 193 191 188 185 186 191 191 188 190 194 192 193 197 200 201 196 194 190 195 201 188 197 213 247 313 321 322
196 193 197 199 200 202 198 194 190 186 186 195 198 200 200 200 202 203 203 208 211 211 210 211 216 224 228 240 270 284 298 301 306
195 194 195 201 203 199 199 195 192 190 189 194 202 206 207 206 206 209 211 215 216 220 219 226 234 239 240 248 264 278 289 291 293
199 198 195 202 203 200 199 196 191 195 195 195 200 208 213 214 213 214 217 221 223 225 229 229 237 250 255 261 276 288 293 300 303
209 206 200 202 202 202 199 199 194 194 198 201 206 206 214 218 218 219 222 225 229 232 235 241 245 251 258 263 271 279 281 281 286
209 199 197 201 198 199 201 200 197 197 198 203 207 206 216 223 226 226 227 228 232 237 239 241 250 256 262 267 271 277 286 296 298
223 203 191 193 198 200 200 200 197 195 195 192 203 212 219 228 231 232 233 233 236 241 246 248 254 261 268 274 278 277 285 294 303
232 209 193 194 196 198 201 197 190 191 193 177 155 169 234 236 233 233 236 238 242 247 253 255 258 262 267 273 276 278 283 289 299
232 210 195 196 202 199 202 200 192 187 193 193 168 136 210 183 224 231 236 239 241 246 251 254 255 255 261 271 275 273 273 273 273
212 214 189 194 197 202 202 201 199 191 192 193 199 197 167 176 199 222 228 231 235 239 241 239 238 244 256 272 267 258 264 266 267
235 230 240 205 200 202 203 200 196 197 197 195 195 195 191 182 141 191 196 217 226 226 226 228 235 251 264 257 249 244 249 257 261